Orbital Elements at Epoch 2459165.5 (2020-Nov-12.0) TDB
Reference: JPL 1 (heliocentric ecliptic J2000)
Element | Value | Uncertainty (1-sigma) | Units |
e | .321045437579678 | 0.00093581 | |
a | 1.359482839119854 | 0.0016505 | au |
q | .9230270761525576 | 0.0001518 | au |
i | 10.3388366629027 | 0.022121 | deg |
node | 49.59457743113165 | 0.00084856 | deg |
peri | 311.3508883423182 | 0.0013346 | deg |
M | 25.47184932039746 | 0.057576 | deg |
tp | 2459124.534619054237 (2020-Oct-02.03461905) | 0.018003 | TDB |
period | 578.9739470806733 1.59 | 1.0543 0.002887 | d yr |
n | .6217896363302824 | 0.0011323 | deg/d |
Q | 1.795938602087151 | 0.0021803 | au |
|
| | Orbit Determination Parameters
Additional Information
|